Regional Weather Roundup
Issued by NWS

Home | Current Version | Previous Version | Graphics & Text | Print | Product List | Glossary Off
Versions: 1 2 3 4 5 6 7 8 9 10 11 12 13 14 15 16 17 18 19 20 21 22 23 24 25 26 27 28 29 30 31 32 33 34 35 36 37 38 39 40 41 42 43 44 45 46 47 48 49 50

000
ASUS44 KFWD 211815
RWRTX
NORTH TEXAS HOURLY WEATHER ROUNDUP
NATIONAL WEATHER SERVICE FORT WORTH TX
100 PM CDT TUE OCT 21 2014

NOTE: "FAIR" INDICATES FEW OR NO CLOUDS BELOW 12,000 FEET WITH NO
SIGNIFICANT WEATHER AND/OR OBSTRUCTIONS TO VISIBILITY.

TXZ118-119-211900-
DALLAS/FORT WORTH METROPLEX

CITY           SKY/WX    TMP DP  RH WIND       PRES   REMARKS
DFW AIRPORT    MOSUNNY   79  56  45 E7        30.08F
6HR MIN TEMP:  60; 6HR MAX TEMP:  79;

DALLAS LOVE    SUNNY     78  57  48 VRB3      30.08F
6HR MIN TEMP:  59; 6HR MAX TEMP:  79;

FTW MEACHAM    SUNNY     79  54  41 SE9       30.07F
6HR MIN TEMP:  59; 6HR MAX TEMP:  79;

DAL-EXECUTIVE  SUNNY     80  52  37 SE9       30.08F
6HR MIN TEMP:  57; 6HR MAX TEMP:  81;

FTW-ALLIANCE   MOSUNNY   79  53  40 E9        30.08F
6HR MIN TEMP:  52; 6HR MAX TEMP:  79;

FTW-NAS-JRB    SUNNY     81  55  40 E7        30.12F
6HR MIN TEMP:  61; 6HR MAX TEMP:  81;

FTW-SPINKS     SUNNY     79  55  44 CALM      30.10F
ARLINGTON      SUNNY     78  54  43 E6        30.08F
6HR MIN TEMP:  54; 6HR MAX TEMP:  78;

GRAND PRAIRIE  SUNNY     77  57  50 MISG      30.10F
ADDISON        SUNNY     77  55  47 SE3       30.09F
MESQUITE       SUNNY     79  54  41 SE6       30.09F
LANCASTER      SUNNY     77  53  42 E8        30.10F HAZE
6HR MIN TEMP:  51; 6HR MAX TEMP:  78;

$$

TXZ091>094-102>105-117-120-121-131>134-211900-
NORTH CENTRAL TEXAS

CITY           SKY/WX    TMP DP  RH WIND       PRES   REMARKS
SHRMAN/DENISON SUNNY     79  60  51 S3        30.10F
6HR MIN TEMP:  58; 6HR MAX TEMP:  79;

GAINESVILLE    SUNNY     78  56  46 MISG      30.11F
6HR MIN TEMP:  56; 6HR MAX TEMP:  78;

BOWIE          SUNNY     78  56  46 SE5       30.09F
6HR MIN TEMP:  55; 6HR MAX TEMP:  79;

BRIDGEPORT     SUNNY     79  58  48 SE5       30.10F
6HR MIN TEMP:  53; 6HR MAX TEMP:  80;

DECATUR        SUNNY     78  52  40 SE6       30.09F
6HR MIN TEMP:  63; 6HR MAX TEMP:  78;

DENTON         SUNNY     78  55  44 SE6       30.08F
6HR MIN TEMP:  54; 6HR MAX TEMP:  78;

MCKINNEY       SUNNY     78  56  46 SE5       30.09F
6HR MIN TEMP:  55; 6HR MAX TEMP:  79;

GREENVILLE     SUNNY     79  55  44 SE6       30.10F
ROCKWALL       SUNNY     79  58  48 CALM      30.09F
6HR MIN TEMP:  56; 6HR MAX TEMP:  79;

TERRELL        SUNNY     78  56  46 E8        30.10F
6HR MIN TEMP:  55; 6HR MAX TEMP:  79;

WAXAHACHIE     SUNNY     79  53  41 SE3       30.10F
6HR MIN TEMP:  53; 6HR MAX TEMP:  79;

GRANBURY       SUNNY     79  55  44 NE7       30.09F
6HR MIN TEMP:  56; 6HR MAX TEMP:  79;

$$

TXZ083>090-098>101-113>116-127>130-139>142-154-155-211900-
WESTERN NORTH TEXAS

CITY           SKY/WX    TMP DP  RH WIND       PRES   REMARKS
WICHITA FALLS  SUNNY     80  56  43 SE7       30.07F
6HR MIN TEMP:  57; 6HR MAX TEMP:  80;

WF-KICKAPOO    SUNNY     80  55  43 SW5       30.09F
6HR MIN TEMP:  58; 6HR MAX TEMP:  80;

VERNON         SUNNY     81  54  39 S5        30.08F
ABILENE        MOSUNNY   79  53  40 S10       30.10F
6HR MIN TEMP:  60; 6HR MAX TEMP:  79;

ABILENE-DYESS  MOSUNNY   79  53  40 SE9       30.08F
6HR MIN TEMP:  53; 6HR MAX TEMP:  79;

BRECKENRIDGE   MOSUNNY   79  55  43 E3        30.08F HAZE
6HR MIN TEMP:  57; 6HR MAX TEMP:  80;

GRAHAM         SUNNY     79  57  45 SE5       30.07F
6HR MIN TEMP:  55; 6HR MAX TEMP:  79;

MINERAL WELLS  SUNNY     78  55  44 E10G17    30.08F
6HR MIN TEMP:  56; 6HR MAX TEMP:  78;

STEPHENVILLE   MOSUNNY   77  57  49 SE9       30.12F
6HR MIN TEMP:  56; 6HR MAX TEMP:  77;

COMANCHE       MOSUNNY   77  58  51 SE3       30.10F
6HR MIN TEMP:  56; 6HR MAX TEMP:  77;

BROWNWOOD      MOSUNNY   75  55  50 CALM      30.10F
COLEMAN        PTSUNNY   77  57  50 S7        30.10F
6HR MIN TEMP:  53; 6HR MAX TEMP:  78;

BRADY          MOSUNNY   77  52  41 VRB7      30.09F
$$

TXZ143>147-156>162-174-175-211900-
CENTRAL TEXAS

CITY           SKY/WX    TMP DP  RH WIND       PRES   REMARKS
WACO           SUNNY     78  57  48 CALM      30.09F
6HR MIN TEMP:  54; 6HR MAX TEMP:  78;

WACO-TSTC      SUNNY     77  55  47 E7        30.08F
WACO-MCGREGOR  SUNNY     79  57  47 SE6       30.10F
6HR MIN TEMP:  54; 6HR MAX TEMP:  79;

HILLSBORO      SUNNY     79  52  39 E7        30.09F
6HR MIN TEMP:  56; 6HR MAX TEMP:  79;

CORSICANA      SUNNY     77  54  44 E9        30.10F
6HR MIN TEMP:  54; 6HR MAX TEMP:  77;

MEXIA          SUNNY     77  56  47 E7        30.08F
6HR MIN TEMP:  56; 6HR MAX TEMP:  77;

HEARNE         SUNNY     79  52  39 E6        30.08F
6HR MIN TEMP:  53; 6HR MAX TEMP:  79;

CAMERON        SUNNY     78  52  40 E7        30.08F
6HR MIN TEMP:  55; 6HR MAX TEMP:  78;

TEMPLE         SUNNY     77  55  47 E7        30.08F
6HR MIN TEMP:  54; 6HR MAX TEMP:  79;

KILLEEN        MOSUNNY   77  57  50 VRB3      30.08F
KILLEEN-SKYLRK SUNNY     75  57  53 E7        30.09F
6HR MIN TEMP:  55; 6HR MAX TEMP:  75;

FORT HOOD      SUNNY     80  59  48 VRB5      30.08F
6HR MIN TEMP:  59; 6HR MAX TEMP:  80;

GATESVILLE     SUNNY     75  59  57 CALM      30.11F
HAMILTON       SUNNY     78  56  47 NE5       30.11F
6HR MIN TEMP:  57; 6HR MAX TEMP:  78;

LAMPASAS       SUNNY     76  59  55 E6        30.09F
6HR MIN TEMP:  55; 6HR MAX TEMP:  76;

$$

TXZ095>097-106>112-122>126-135>138-148>153-164>167-211900-
EAST TEXAS

CITY           SKY/WX    TMP DP  RH WIND       PRES   REMARKS
PARIS          SUNNY     75  55  50 CALM      30.11F
6HR MIN TEMP:  57; 6HR MAX TEMP:  75;

SULPHUR SPRNGS PTSUNNY   78  54  43 E3        30.12F
6HR MIN TEMP:  56; 6HR MAX TEMP:  78;

MOUNT PLEASANT SUNNY     76  58  53 E5        30.12F
6HR MIN TEMP:  53; 6HR MAX TEMP:  76;

MINEOLA        SUNNY     75  57  53 CALM      30.11F
TYLER          SUNNY     78  52  40 SE7       30.10F
6HR MIN TEMP:  56; 6HR MAX TEMP:  78;

LONGVIEW       SUNNY     78  59  51 NE5       30.09F
6HR MIN TEMP:  54; 6HR MAX TEMP:  78;

MARSHALL       SUNNY     78  62  56 SE3       30.11F
6HR MIN TEMP:  55; 6HR MAX TEMP:  78;

ATHENS         SUNNY     77  52  41 E6        30.09F
PALESTINE      SUNNY     77  56  48 E5        30.10F
JACKSONVILLE   SUNNY     77  55  45 E6        30.12F
HENDERSON      MOSUNNY   78  56  46 NE5       30.10F
6HR MIN TEMP:  52; 6HR MAX TEMP:  78;

NACOGDOCHES    SUNNY     77  57  50 SE3       30.09F
6HR MIN TEMP:  48; 6HR MAX TEMP:  77;

LUFKIN         SUNNY     80  55  42 VRB6      30.08F
6HR MIN TEMP:  54; 6HR MAX TEMP:  80;

$$

SUPPLEMENTAL OBSERVATIONS (CENTRAL)

CITY           SKY/WX    TMP DP  RH WIND       PRES   REMARKS
LAKE TEXOMA      N/A     75  57  53 E3          N/A
CADDO GRASSLND   N/A     79  59  50 SE5         N/A
PAT MAYSE LAKE   N/A     73  59  60 S3          N/A
GREENVILLE       N/A     79  57  47 SE7         N/A
CEDAR HILL       N/A     82  50  32 SE3         N/A
ATHENS           N/A     79  50  36 SE8         N/A
PALESTINE        N/A     79  57  47 SE5         N/A
LAKE LIMESTONE   N/A     81  52  36 E7          N/A
MCGREGOR         N/A     79  57  47 E5          N/A
TEMPLE           N/A     79  59  50 E7          N/A
$$

SUPPLEMENTAL OBSERVATIONS (WEST)

CITY           SKY/WX    TMP DP  RH WIND       PRES   REMARKS



USA.gov is the U.S. government's official web portal to all federal, state and local government web resources and services.